Find Solidaridad 1

NORAD ID: 22911 Int'l Des: 1993-073 Owner: TELMX Country: MX operational
HEOCIRCULARGSO

实时位置

正在加载3D地球...

关于 Solidaridad 1

正在加载描述...

即将过境

Passes for default location (London). Set your location on the main map for personalized predictions.

高度历史

Loading altitude history...

两行轨道根数

1 22911U 93073A 26106.27808803 -.00000105 00000-0 00000+0 0 9994
2 22911 14.3627 2.8532 0007341 271.8595 284.0840 1.00279931117245
Epoch: Apr 16, 2026 • Age: 17 hours

当前状态

高度 35814.1 km
速度 3.07 km/s
星下点 14.37°N, 105.76°W
发射日期 Nov 20, 1993
运行时间 32.4 years
类型 other

技术详情

分类 Payload
质量 2776.00 kg
干质量 1291.00 kg
总质量 2776.00 kg
长度 3.80 m
直径 2.80 m
跨度 21.00 m
形状 Box + 2 Pan
制造商 HSES
平台类型 HS-601
阶段状态 Renamed
所有者/国家 TELMX/MX

Most Searched